Weather - Helsinki Query any day in the database

Current weather  

Weather data for a selected day (2006-01-01 -2020-10-30)
Enter date:     <-     scroll days         ->
day curves
Low temperature°C -6.023:50
High temperature°C -4.019:20
Low wind chill°C -13.123:20
Average temperature°C -5.1 
High wind speed (10 min) m/s 7.013:20
Low pressurehPa 1047.023:50
High pressurehPa 1053.004:20
Low R.H% 5319:20
High R.H% 8500:50
Day weather data as a table
Date Time Temp
°C
Chill
°C
Pressure
hPA
Wind
m/s
Hum
%
Precip
mm
2008-01-04 23:50:00 -6.0  -12.4  1047.0 5.0 57 -
2008-01-04 23:20:00 -6.0  -13.1  1047.0 6.0 57 -
2008-01-04 22:50:00 -6.0  -12.4  1047.0 5.0 57 -
2008-01-04 22:20:00 -6.0  -12.4  1048.0 5.0 57 -
2008-01-04 21:50:00 -6.0  -12.4  1048.0 5.0 57 -
2008-01-04 21:20:00 -6.0  -13.1  1048.0 6.0 57 -
2008-01-04 20:50:00 -6.0  -13.1  1048.0 6.0 57 -
2008-01-04 20:20:00 -5.0  -11.8  1049.0 6.0 57 -
2008-01-04 19:50:00 -5.0  -11.8  1049.0 6.0 57 -
2008-01-04 19:20:00 -4.0  -10.5  1049.0 6.0 53 -
2008-01-04 18:50:00 -5.0  -11.2  1049.0 5.0 62 -
2008-01-04 18:20:00 -5.0  -10.4  1049.0 4.0 57 -
2008-01-04 17:50:00 -4.0  -9.9  1050.0 5.0 58 -
2008-01-04 17:20:00 -5.0  -11.2  1050.0 5.0 62 -
2008-01-04 16:50:00 -5.0  -11.2  1050.0 5.0 62 -
2008-01-04 16:20:00 -4.0  -9.9  1050.0 5.0 58 -
2008-01-04 15:50:00 -4.0  -9.2  1050.0 4.0 58 -
2008-01-04 15:20:00 -4.0  -9.9  1051.0 5.0 68 -
2008-01-04 14:50:00 -4.0  -9.9  1051.0 5.0 68 -
2008-01-04 14:20:00 -4.0  -9.9  1051.0 5.0 68 -
2008-01-04 13:50:00 -4.0  -10.5  1051.0 6.0 68 -
2008-01-04 13:20:00 -4.0  -11.1  1051.0 7.0 68 -
2008-01-04 12:50:00 -4.0  -10.5  1052.0 6.0 62 -
2008-01-04 12:20:00 -4.0  -11.1  1052.0 7.0 68 -
2008-01-04 11:50:00 -4.0  -10.5  1052.0 6.0 62 -
2008-01-04 11:20:00 -4.0  -9.9  1052.0 5.0 58 -
2008-01-04 10:50:00 -5.0  -11.2  1052.0 5.0 62 -
2008-01-04 10:20:00 -5.0  -11.2  1052.0 5.0 62 -
2008-01-04 09:50:00 -5.0  -11.8  1052.0 6.0 62 -
2008-01-04 09:20:00 -5.0  -11.2  1052.0 5.0 62 -
2008-01-04 08:50:00 -5.0  -11.2  1052.0 5.0 57 -
2008-01-04 08:20:00 -5.0  -10.4  1052.0 4.0 62 -
2008-01-04 07:50:00 -5.0  -10.4  1052.0 4.0 62 -
2008-01-04 07:20:00 -6.0  -11.7  1052.0 4.0 67 -
2008-01-04 06:50:00 -6.0  -11.7  1052.0 4.0 73 -
2008-01-04 06:20:00 -6.0  -12.4  1052.0 5.0 73 -
2008-01-04 05:50:00 -6.0  -12.4  1052.0 5.0 73 -
2008-01-04 05:20:00 -6.0  -12.4  1052.0 5.0 73 -
2008-01-04 04:50:00 -6.0  -12.4  1052.0 5.0 73 -
2008-01-04 04:20:00 -6.0  -12.4  1053.0 5.0 73 -
2008-01-04 03:50:00 -6.0  -12.4  1052.0 5.0 73 -
2008-01-04 03:20:00 -6.0  -10.7  1052.0 3.0 79 -
2008-01-04 02:50:00 -6.0  -11.7  1052.0 4.0 79 -
2008-01-04 02:20:00 -5.0  -11.2  1052.0 5.0 79 -
2008-01-04 01:50:00 -5.0  -10.4  1052.0 4.0 79 -
2008-01-04 01:20:00 -5.0  -10.4  1052.0 4.0 79 -
2008-01-04 00:50:00 -5.0  -10.4  1052.0 4.0 85 -
2008-01-04 00:20:00 -5.0  -11.2  1052.0 5.0 85 -
Unit conversions: